Volver al catálogo

YAOGAN-43 O1H

ActivoMilitarVLEO
NORAD 60465·PAYLOAD·🇨🇳 China

Lanzado Aug 16, 2024 desde Xichang Satellite Launch Center

Loading…

Próximos Pases (próximas 24 horas)

TLE

ActualizadoSource: Space-Track

Época: Sep 14, 2026, 13:24 UTC

1 60465U 24148H   26257.55879891  .00011117  00000-0  38338-3 0  9993
2 60465  34.9873 310.4285 0007328 284.3350  75.6553 15.29167462115871

Sigue YAOGAN-43 O1H en tiempo real con AllMySat

Download on the App Store